Vorticity
4 4 4 3 4 4 2 4 2 -0 3 4 3 4 4 5 12 18 18 11 14 15 16 11 6 5 8 17 16 11 6 5 5 3 5 8 6 37 16 1 -2 1 8 7
28 27 26 22 19 20 21 23 24 22 22 19 21 19 21 26 18 12 21 15 7 7 4 4 5 15 12 11 9 6 7 6 3 4 6 7 7 24 37 9 5 5 4 5
14 13 16 19 18 17 19 20 21 22 20 20 17 13 18 19 13 8 6 5 3 3 5 13 13 10 6 8 6 6 6 4 2 4 5 8 7 4 27 25 10 5 7 -5
4 4 5 4 7 6 5 5 6 7 8 7 6 7 6 5 5 4 4 5 7 8 14 7 6 7 6 4 3 5 6 5 5 8 8 8 10 8 5 16 24 16 14 16
6 4 5 5 4 4 4 5 5 5 6 6 6 8 7 6 7 8 9 9 9 9 5 5 4 4 5 5 5 7 8 9 10 11 12 12 14 13 11 6 8 13 4 2
8 7 6 5 6 5 7 7 5 6 6 6 6 6 5 6 6 5 5 5 5 5 4 4 4 4 4 6 9 9 9 15 15 15 13 14 7 5 6 10 13 10 5 8
10 11 13 12 11 10 11 11 10 8 6 5 6 7 8 8 8 7 6 5 5 6 6 6 7 7 7 8 8 4 8 3 5 5 7 1 6 5 3 4 5 4 6 10
7 7 5 7 8 9 8 8 8 10 12 11 11 11 10 11 14 14 13 12 12 11 10 9 10 10 9 9 11 12 16 8 3 6 8 8 4 2 7 8 5 5 4 4
7 7 7 7 7 7 8 6 7 7 7 7 8 8 8 10 9 6 3 6 9 11 13 13 12 12 18 17 12 9 10 10 6 8 3 -1 4 10 10 7 7 7 6 7
8 8 5 5 4 4 5 5 4 4 5 7 10 12 13 11 10 9 7 7 7 7 7 6 7 9 9 9 9 10 12 11 11 13 12 9 8 5 -1 1 4 5 5 4
6 6 4 5 5 6 4 6 7 8 8 10 10 9 9 10 11 10 10 11 12 12 12 12 12 13 13 11 11 11 11 10 10 9 10 12 15 16 16 20 18 16 11 10
5 5 7 5 6 7 7 7 5 6 7 7 8 8 9 10 9 9 10 10 12 12 12 11 10 10 9 10 10 11 13 13 12 12 12 13 12 12 12 9 7 7 7 7
5 5 6 5 7 8 8 8 8 7 8 9 8 8 7 8 8 10 11 9 9 9 9 8 7 7 6 6 6 7 7 6 6 6 6 7 6 8 5 9 9 8 7 6
6 7 8 8 7 9 11 11 8 8 8 9 9 10 12 11 11 10 10 11 10 10 9 9 10 10 9 10 9 9 8 9 8 8 8 7 8 7 8 7 3 2 10 11
13 12 11 12 13 11 8 7 6 7 8 8 10 10 10 9 9 9 8 7 6 7 9 9 9 10 10 10 10 10 10 11 11 11 11 9 7 4 4 6 5 7 11 18
10 11 12 12 9 7 7 7 5 6 8 10 11 9 8 7 7 7 8 10 11 12 13 13 13 13 12 14 12 11 11 11 11 10 7 6 6 8 10 16 22 23 19 16
10 12 10 6 5 5 4 8 11 13 12 8 3 6 9 14 16 17 15 15 16 17 15 14 11 10 9 9 8 8 9 11 13 12 8 6 14 21 21 21 21 19 17 17
15 15 15 17 18 16 15 13 15 18 19 21 19 16 16 16 15 12 14 14 14 14 13 12 13 13 14 13 12 8 6 7 11 15 19 23 21 19 19 20 19 19 18 18
18 19 19 19 18 18 18 17 16 15 14 12 11 11 11 11 11 12 11 10 11 10 9 7 7 6 6 5 6 12 14 15 15 13 15 19 20 18 16 16 16 16 15 15
19 19 20 20 21 18 15 12 13 14 12 13 13 11 10 8 7 8 8 8 9 9 10 9 10 10 9 10 9 10 12 14 18 19 17 13 14 16 15 15 15 15 15 17
20 21 21 19 17 12 11 10 8 7 7 9 9 9 10 11 12 12 13 15 22 15 16 17 16 15 14 14 15 17 16 13 14 14 16 17 15 15 15 13 14 16 16 16
13 10 7 7 8 9 7 9 9 10 13 14 14 15 15 15 15 14 14 18 14 20 18 17 16 17 18 17 19 19 20 19 19 16 15 14 13 11 12 16 16 18 22 25
10 7 9 11 10 8 9 10 6 6 5 5 6 4 7 10 11 12 14 15 18 19 19 23 26 24 22 20 20 18 17 15 15 14 12 11 12 16 17 20 21 25 24 21
9 12 10 8 5 6 4 -3 6 3 8 11 15 15 14 13 12 14 14 17 22 28 24 26 23 20 18 16 17 17 18 17 14 13 13 15 15 19 21 24 27 18 15 13
11 6 3 5 7 5 10 8 6 4 5 5 6 9 8 6 15 15 18 24 23 22 20 18 15 15 14 15 14 16 16 14 15 13 12 14 19 19 28 21 7 5 7 12
-6 -4 -14 -4 3 5 1 0 1 4 10 8 18 18 12 22 23 21 22 19 14 13 13 13 17 16 16 20 18 15 15 12 9 13 16 18 21 28 18 4 3 11 5 19
-7 -3 6 1 -1 2 2 10 13 11 9 14 12 17 23 23 25 22 13 11 8 9 10 10 12 14 13 13 14 14 17 17 13 16 15 20 26 17 5 1 9 8 16 15
Height
5737 5739 5739 5741 5741 5741 5742 5742 5742 5744 5741 5738 5737 5736 5736 5736 5736 5734 5732 5730 5728 5726 5723 5722 5721 5719 5717 5714 5712 5710 5707 5705 5704 5702 5699 5695 5691 5686 5686 5686 5686 5686 5686 5685
5732 5733 5734 5734 5734 5734 5734 5733 5733 5731 5731 5727 5725 5725 5726 5727 5725 5723 5722 5721 5719 5717 5716 5715 5713 5710 5707 5705 5703 5702 5700 5698 5696 5694 5691 5687 5683 5678 5676 5676 5677 5677 5675 5675
5726 5726 5726 5729 5728 5727 5727 5726 5725 5724 5723 5721 5719 5717 5717 5717 5715 5715 5714 5712 5711 5709 5707 5705 5703 5701 5699 5697 5695 5693 5691 5689 5687 5685 5681 5678 5675 5672 5668 5667 5667 5666 5666 5665
5721 5720 5721 5722 5721 5720 5719 5719 5719 5718 5716 5714 5712 5711 5710 5709 5707 5706 5704 5702 5701 5699 5697 5696 5694 5692 5690 5688 5686 5684 5681 5679 5676 5674 5671 5668 5666 5663 5661 5659 5657 5655 5655 5654
5716 5713 5715 5714 5713 5713 5712 5713 5711 5709 5708 5706 5704 5703 5702 5700 5698 5697 5695 5693 5691 5690 5688 5687 5685 5682 5680 5678 5676 5673 5670 5667 5665 5663 5661 5658 5656 5654 5652 5650 5648 5646 5644 5642
5709 5708 5707 5707 5705 5704 5702 5702 5701 5700 5699 5697 5695 5694 5692 5690 5688 5686 5684 5682 5680 5678 5677 5675 5673 5671 5669 5667 5664 5662 5659 5656 5654 5652 5650 5648 5646 5644 5642 5640 5638 5636 5634 5631
5699 5698 5700 5698 5697 5695 5694 5695 5690 5688 5686 5685 5683 5682 5681 5679 5678 5676 5673 5671 5668 5665 5663 5662 5660 5658 5656 5654 5651 5649 5647 5645 5642 5640 5638 5636 5634 5632 5630 5629 5627 5625 5623 5621
5689 5688 5689 5688 5686 5686 5685 5682 5679 5677 5675 5673 5671 5669 5666 5663 5662 5661 5660 5658 5655 5652 5650 5648 5646 5644 5642 5640 5637 5635 5633 5631 5630 5627 5625 5624 5622 5620 5617 5616 5614 5612 5611 5608
5681 5679 5676 5674 5673 5673 5671 5668 5667 5667 5665 5662 5659 5655 5653 5650 5647 5645 5643 5641 5639 5637 5634 5631 5629 5628 5628 5626 5623 5620 5618 5616 5615 5612 5610 5609 5607 5606 5604 5602 5600 5598 5596 5594
5669 5668 5664 5661 5660 5658 5656 5654 5652 5649 5648 5648 5646 5644 5641 5637 5634 5631 5629 5626 5623 5621 5619 5616 5613 5610 5609 5608 5606 5605 5603 5600 5598 5597 5595 5592 5590 5588 5587 5586 5583 5581 5580 5578
5657 5656 5652 5651 5648 5646 5644 5640 5638 5636 5635 5632 5630 5628 5625 5622 5620 5617 5614 5611 5608 5606 5603 5600 5597 5593 5591 5589 5587 5586 5585 5583 5581 5579 5577 5575 5572 5569 5568 5566 5565 5562 5560 5558
5642 5641 5639 5638 5635 5632 5629 5627 5624 5621 5618 5616 5614 5612 5609 5606 5604 5601 5598 5595 5593 5590 5587 5585 5582 5578 5576 5573 5570 5568 5566 5564 5562 5560 5558 5555 5554 5552 5548 5547 5545 5543 5540 5538
5627 5625 5623 5621 5619 5616 5614 5611 5608 5605 5603 5600 5597 5594 5592 5588 5586 5584 5582 5580 5577 5574 5570 5567 5565 5562 5560 5557 5555 5552 5549 5546 5545 5542 5539 5537 5534 5532 5531 5528 5523 5521 5520 5517
5610 5608 5606 5603 5601 5599 5596 5592 5590 5588 5585 5583 5580 5578 5576 5573 5569 5566 5564 5562 5560 5557 5553 5551 5548 5545 5543 5540 5537 5534 5531 5527 5525 5522 5519 5517 5514 5511 5508 5507 5506 5503 5495 5491
5591 5590 5588 5586 5584 5581 5578 5575 5573 5571 5569 5566 5563 5561 5559 5556 5553 5549 5546 5544 5543 5539 5535 5532 5529 5526 5523 5520 5519 5516 5512 5509 5505 5502 5499 5495 5492 5489 5485 5482 5479 5478 5475 5469
5573 5571 5570 5568 5566 5564 5561 5560 5557 5554 5551 5548 5546 5543 5540 5537 5535 5532 5527 5524 5523 5521 5516 5512 5508 5505 5502 5499 5497 5494 5491 5488 5484 5482 5479 5475 5470 5466 5462 5458 5453 5450 5447 5443
5556 5554 5552 5550 5548 5547 5544 5541 5537 5535 5532 5529 5526 5524 5522 5519 5516 5512 5508 5504 5502 5500 5497 5492 5487 5484 5481 5477 5475 5473 5470 5467 5462 5459 5454 5450 5446 5441 5436 5431 5427 5424 5421 5417
5537 5535 5533 5531 5528 5526 5524 5522 5520 5517 5515 5511 5508 5505 5502 5499 5496 5493 5490 5487 5484 5481 5476 5470 5467 5465 5462 5457 5454 5451 5448 5444 5439 5434 5430 5425 5420 5415 5411 5406 5402 5399 5396 5393
5519 5517 5515 5513 5511 5509 5507 5504 5502 5500 5496 5493 5491 5489 5485 5482 5477 5474 5471 5468 5465 5461 5459 5453 5448 5444 5440 5435 5431 5429 5424 5420 5415 5411 5406 5402 5398 5392 5388 5384 5380 5377 5373 5370
5503 5501 5499 5497 5496 5494 5491 5488 5487 5485 5481 5478 5475 5472 5469 5466 5460 5456 5453 5451 5446 5439 5438 5434 5429 5424 5418 5414 5409 5406 5402 5398 5394 5390 5386 5382 5378 5373 5368 5364 5359 5355 5351 5347
5487 5486 5484 5483 5482 5480 5478 5476 5473 5470 5466 5462 5458 5455 5452 5449 5443 5437 5434 5430 5427 5418 5416 5411 5405 5401 5395 5391 5388 5385 5381 5378 5374 5370 5366 5362 5358 5354 5349 5345 5341 5337 5333 5329
5475 5473 5472 5471 5470 5467 5462 5460 5456 5454 5450 5446 5441 5437 5432 5430 5424 5419 5414 5408 5405 5398 5394 5390 5384 5379 5374 5371 5369 5366 5362 5359 5355 5351 5348 5344 5341 5338 5334 5330 5325 5321 5316 5312
5463 5461 5460 5458 5455 5453 5451 5446 5442 5437 5434 5429 5423 5418 5412 5408 5403 5397 5394 5388 5382 5376 5372 5370 5365 5360 5355 5352 5349 5346 5344 5341 5338 5335 5333 5330 5327 5323 5319 5316 5311 5307 5303 5299
5452 5450 5448 5445 5442 5439 5436 5432 5426 5423 5417 5412 5406 5399 5392 5387 5383 5377 5370 5366 5363 5357 5353 5351 5348 5343 5338 5335 5332 5329 5327 5326 5324 5322 5319 5316 5313 5310 5306 5302 5300 5297 5294 5290
5441 5439 5436 5433 5429 5424 5419 5413 5409 5406 5399 5394 5388 5382 5375 5368 5360 5359 5352 5346 5343 5340 5337 5334 5330 5327 5323 5320 5317 5315 5314 5312 5310 5308 5305 5303 5300 5297 5294 5292 5291 5288 5286 5282
5427 5424 5421 5417 5412 5407 5400 5394 5390 5387 5379 5373 5369 5363 5357 5350 5343 5337 5334 5330 5327 5324 5321 5317 5313 5310 5307 5305 5303 5300 5299 5298 5296 5294 5293 5291 5288 5286 5285 5285 5283 5280 5277 5274
5412 5409 5404 5401 5396 5388 5382 5376 5370 5365 5360 5352 5345 5344 5337 5332 5326 5322 5319 5317 5314 5310 5306 5302 5299 5296 5293 5291 5289 5287 5286 5285 5284 5283 5281 5280 5278 5278 5278 5277 5275 5272 5269 5266